Hornbeck, LA

3:15 PM CDT on August 27, 2016 (GMT -0500)
Fort Polk

Weather History for KAQV - October, 2013

Change the Weather History Date:

Sunday, October 13, 2013

  Actual Average (KPOE) Record (KPOE)
Temperature  
Mean Temperature 74 °F -  
Max Temperature 82 °F 76 °F 90 °F (2015)
Min Temperature 66 °F 56 °F 46 °F (2000)
Cooling Degree Days 9    
Growing Degree Days 24 (Base 50)    
Moisture  
Dew Point 68 °F    
Average Humidity 87    
Maximum Humidity 100    
Minimum Humidity 65    
Precipitation  
Precipitation 0.00 in - - ()
Sea Level Pressure  
Sea Level Pressure 30.13 in    
Wind  
Wind Speed 3 mph (NNE)    
Max Wind Speed 10 mph    
Max Gust Speed -    
Visibility 8 miles    
Events Fog    
Averages and records for this station are not official NWS values.
T = Trace of Precipitation, MM = Missing Value Source: NWS Daily Summary

Daily Weather History Graph

Daily Weather History Graph

Search for Another Location

Airport or City:

Trip Planner

Search our weather history database for the weather conditions in past years. The results will help you decide how hot, cold, wet, or windy it might be!

Date:

Astronomy

Oct. 13, 2013 Rise Set
Actual Time 7:14 AM CDT 6:43 PM CDT
Civil Twilight 6:50 AM CDT 7:07 PM CDT
Nautical Twilight 6:22 AM CDT 7:35 PM CDT
Astronomical Twilight 5:54 AM CDT 8:03 PM CDT
Moon 3:17 PM CDT (10/13) 1:45 AM CDT (10/13)
Length of Visible Light 12h 17m
Length of Day
11h 28m
Waxing Gibbous, 69% of the Moon is Illuminated
Oct 13
Waxing Gibbous
Oct 18
Full
Oct 26
Last Quarter
Nov 3
New
Nov 9
First Quarter

Hourly Weather History & Observations

Time (CDT) Temp. Heat Index Dew Point Humidity Pressure Visibility Wind Dir Wind Speed Gust Speed Precip Events Conditions
12:56 AM 68.0 °F - 66.0 °F 93% 30.03 in 10.0 mi Calm Calm - N/A   Clear
1:56 AM 68.0 °F - 66.0 °F 93% 30.04 in 10.0 mi Calm Calm - N/A   Clear
2:56 AM 68.0 °F - 66.0 °F 93% 30.06 in 10.0 mi North 3.5 mph - N/A   Clear
3:56 AM 66.9 °F - 66.0 °F 97% 30.06 in 10.0 mi Calm Calm - N/A   Clear
4:56 AM 66.9 °F - 66.0 °F 97% 30.09 in 10.0 mi Calm Calm - N/A   Clear
5:11 AM 66.2 °F - 66.2 °F 100% 30.09 in 10.0 mi NNE 3.5 mph - N/A   Scattered Clouds
5:20 AM 66.2 °F - 66.2 °F 100% 30.09 in 10.0 mi NNE 4.6 mph - N/A   Mostly Cloudy
5:56 AM 66.9 °F - 66.0 °F 97% 30.09 in 4.0 mi NNE 4.6 mph - N/A   Overcast
6:56 AM 68.0 °F - 66.9 °F 96% 30.11 in 4.0 mi Variable 3.5 mph - N/A   Overcast
7:18 AM 68.0 °F - 66.2 °F 94% 30.13 in 1.8 mi North 4.6 mph - N/A   Overcast
7:34 AM 68.0 °F - 66.2 °F 94% 30.14 in 0.8 mi NNE 3.5 mph - N/A   Overcast
7:56 AM 68.0 °F - 66.9 °F 96% 30.14 in 0.5 mi Calm Calm - N/A Fog Fog
8:56 AM 68.0 °F - 66.9 °F 96% 30.18 in 0.8 mi Variable 3.5 mph - N/A   Mist
9:04 AM 68.0 °F - 66.2 °F 94% 30.19 in 1.0 mi Variable 5.8 mph - N/A   Overcast
9:22 AM 68.0 °F - 66.2 °F 94% 30.20 in 2.5 mi NE 3.5 mph - N/A   Overcast
9:37 AM 68.0 °F - 66.2 °F 94% 30.19 in 4.0 mi ENE 5.8 mph - N/A   Overcast
9:56 AM 69.1 °F - 68.0 °F 96% 30.19 in 6.0 mi Calm Calm - N/A   Overcast
10:32 AM 71.6 °F - 68.0 °F 88% 30.19 in 10.0 mi NNE 3.5 mph - N/A   Overcast
10:46 AM 71.6 °F - 68.0 °F 88% 30.18 in 10.0 mi ENE 5.8 mph - N/A   Overcast
10:56 AM 73.0 °F - 68.0 °F 84% 30.17 in 10.0 mi Variable 4.6 mph - N/A   Overcast
11:32 AM 75.2 °F - 68.0 °F 78% 30.18 in 10.0 mi NNE 6.9 mph - N/A   Scattered Clouds
11:56 AM 75.9 °F - 68.0 °F 76% 30.17 in 10.0 mi North 5.8 mph - N/A   Clear
12:56 PM 79.0 °F - 68.0 °F 69% 30.14 in 10.0 mi East 5.8 mph - N/A   Partly Cloudy
1:56 PM 80.1 °F 82.9 °F 69.1 °F 69% 30.12 in 10.0 mi NE 4.6 mph - N/A   Mostly Cloudy
2:56 PM 82.0 °F 85.5 °F 69.1 °F 65% 30.10 in 10.0 mi NE 10.4 mph - N/A   Mostly Cloudy
3:44 PM 80.6 °F 83.9 °F 69.8 °F 70% 30.10 in 10.0 mi NE 3.5 mph - N/A   Mostly Cloudy
3:56 PM 82.9 °F 87.0 °F 70.0 °F 65% 30.09 in 10.0 mi NNE 5.8 mph - N/A   Mostly Cloudy
4:14 PM 80.6 °F 83.9 °F 69.8 °F 70% 30.10 in 10.0 mi Calm Calm - N/A   Partly Cloudy
4:56 PM 79.0 °F - 70.0 °F 74% 30.09 in 10.0 mi NE 4.6 mph - N/A   Scattered Clouds
5:56 PM 78.1 °F - 70.0 °F 76% 30.10 in 10.0 mi Calm Calm - N/A   Clear
6:56 PM 75.0 °F - 71.1 °F 87% 30.12 in 10.0 mi NNE 3.5 mph - N/A   Mostly Cloudy
7:56 PM 73.9 °F - 71.1 °F 91% 30.12 in 10.0 mi Calm Calm - N/A   Clear
8:56 PM 73.9 °F - 70.0 °F 87% 30.14 in 10.0 mi NE 3.5 mph - N/A   Clear
9:56 PM 73.0 °F - 70.0 °F 90% 30.15 in 10.0 mi Calm Calm - N/A   Clear
10:56 PM 73.0 °F - 70.0 °F 90% 30.14 in 10.0 mi NNE 4.6 mph - N/A   Clear
11:56 PM 72.0 °F - 70.0 °F 93% 30.13 in 10.0 mi NNE 3.5 mph - N/A   Partly Cloudy